This demonstration page uses our WeatherBlox Daily Observations layout. Learn more.

Left ArrowRight Arrow

Hourly Observations for May 29, 2022

Temp ( °F °C ) Dew Point ( °F °C ) Humidity (%) Winds ( mph kmh ) Pressure ( in mb ) Visibility ( mi km ) Precip ( " mm )
12:51 am 00:51 Clear 73 22.8 8 -13.3 8 8 NNW 9 15 29.52 1000 10 16 0.00 0.00
1:51 am 01:51 Clear 73 22.8 5 -15 7 7 NW 12 19 29.51 999 10 16 0.00 0.00
2:51 am 02:51 Clear 72 22.2 3 -16.1 6 6 Calm 29.51 999 10 16 0.00 0.00
3:51 am 03:51 Clear 72 22.2 3 -16.1 6 6 VRB 5 7 29.51 999 10 16 0.00 0.00
4:51 am 04:51 Clear 69 20.6 8 -13.3 9 9 NNW 9 15 29.52 1000 10 16 0.00 0.00
5:51 am 05:51 Sunny 66 18.9 8 -13.3 10 10 S 5 7 29.54 1001 10 16 0.00 0.00
6:51 am 06:51 Sunny 70 21.1 8 -13.3 9 9 SE 5 7 29.56 1001 10 16 0.00 0.00
7:51 am 07:51 Sunny 76 24.4 16 -8.9 10 10 S 6 9 29.56 1001 10 16 0.00 0.00
8:51 am 08:51 Sunny 80 26.7 21 -6.1 11 11 NNE 6 9 29.55 1001 10 16 0.00 0.00
9:51 am 09:51 Sunny 82 27.8 20 -6.7 10 10 SSE 5 7 29.53 1000 10 16 0.00 0.00
10:51 am 10:51 Sunny 86 30 24 -4.4 10 10 NNW 10 17 29.51 999 10 16 0.00 0.00
11:51 am 11:51 Sunny 88 31.1 26 -3.3 10 10 Calm 29.49 999 10 16 0.00 0.00
12:51 pm 12:51 Sunny 88 31.1 27 -2.8 11 11 SW 6 9 29.46 998 10 16 0.00 0.00
1:51 pm 13:51 Sunny 93 33.9 27 -2.8 9 9 W 13 20 29.43 997 10 16 0.00 0.00
2:10 pm 14:10 Sunny 93 33.9 28 -2.2 10 10 W 17 28 29.32 993 10 16 0.00 0.00
2:51 pm 14:51 Sunny 92 33.3 27 -2.8 10 10 WNW 31 50 29.42 996 10 16 0.00 0.00
3:51 pm 15:51 Sunny 91 32.8 24 -4.4 9 9 WNW 28 44 29.41 996 10 16 0.00 0.00
4:51 pm 16:51 Sunny 89 31.7 25 -3.9 10 10 WNW 29 46 29.43 997 10 16 0.00 0.00
5:51 pm 17:51 Sunny 87 30.6 28 -2.2 12 12 W 24 39 29.44 997 10 16 0.00 0.00
6:51 pm 18:51 Sunny 84 28.9 31 -0.6 15 15 WNW 24 39 29.45 997 10 16 0.00 0.00
7:51 pm 19:51 Clear 81 27.2 34 1.1 18 18 WNW 20 31 29.47 998 10 16 0.00 0.00
8:51 pm 20:51 Clear 79 26.1 35 1.7 20 20 WNW 24 39 29.48 998 10 16 0.00 0.00
9:51 pm 21:51 Clear 78 25.6 39 3.9 25 25 WNW 20 31 29.52 1000 10 16 0.00 0.00
10:51 pm 22:51 Clear 75 23.9 28 -2.2 18 18 NW 18 30 29.54 1000 10 16 0.00 0.00
11:51 pm 23:51 Clear 72 22.2 28 -2.2 19 19 NW 14 22 29.56 1001 10 16 0.00 0.00

Powered by AerisWeather